Theta_e
311 311 311 311 310 310 310 310 311 311 311 311 312 312 313 313 314 315 315 316 316 315 315 315 316 316 316 315 314 314 314 314 314 314 314 315 315 315 317 318 318 318 319 320 319 318 317 317 316 316 317 319 320 323 321 319 319 320 322 320 320 321 321 322 321 320 320 320 318 317 317 317 317 316 314 314 314 315 315 315 315 315 314 314 314 314 313 314
311 311 310 310 310 310 310 310 310 310 310 310 310 310 311 311 311 312 313 314 315 315 316 315 315 316 316 316 315 314 314 314 315 316 316 315 314 315 317 318 318 318 318 319 319 319 318 318 317 316 318 320 321 322 323 320 318 321 322 321 321 322 322 320 320 320 319 319 319 318 317 317 317 317 314 314 316 316 315 316 315 315 314 313 314 313 312 313
310 310 310 310 310 310 310 310 310 310 310 310 310 310 310 310 310 310 311 311 312 313 315 315 315 315 315 317 316 316 315 315 315 316 316 315 314 314 315 317 318 318 318 318 318 318 318 319 318 317 317 320 321 321 323 321 319 320 321 321 322 322 321 320 319 319 318 318 319 318 317 316 317 317 315 314 316 316 316 316 316 315 315 314 313 313 313 313
310 310 310 310 310 310 310 310 310 310 310 310 310 310 310 310 310 310 310 310 310 311 312 313 314 315 315 315 316 317 316 316 318 318 317 316 315 315 315 317 318 318 318 317 318 317 318 319 317 317 318 320 321 320 321 320 320 321 319 320 321 320 319 319 318 318 317 317 317 318 317 316 317 316 315 315 316 316 317 317 317 317 316 315 314 313 313 313
310 310 310 310 310 310 310 310 310 310 310 310 310 310 310 310 310 310 310 310 310 310 310 311 311 313 314 315 316 317 317 318 321 320 318 317 316 315 314 315 318 318 318 317 317 317 317 318 316 317 319 320 321 320 320 320 318 319 319 319 321 319 318 318 317 316 316 315 316 317 316 316 316 315 315 315 316 317 318 318 317 317 317 317 315 314 314 313
310 310 310 310 310 310 310 310 310 310 310 310 310 310 310 310 310 310 310 310 310 310 310 310 310 311 312 313 315 316 317 319 320 318 318 318 316 315 314 315 316 317 318 317 317 317 317 317 317 318 319 320 321 320 319 319 317 318 320 320 319 318 318 317 316 315 314 314 315 316 316 316 316 315 315 315 316 317 318 317 317 317 317 316 316 315 314 313
310 310 310 310 310 310 311 310 310 310 310 310 310 310 310 310 310 310 310 310 310 310 310 310 310 310 310 312 313 315 318 319 318 317 318 317 316 315 314 314 315 316 316 317 316 317 318 318 318 319 320 319 320 320 319 317 316 317 319 320 318 317 317 316 315 313 313 314 315 315 315 315 315 316 316 316 316 317 317 317 316 316 316 315 315 315 314 314
310 311 311 311 311 311 311 311 311 311 310 311 310 310 310 310 310 310 310 310 310 310 310 310 310 310 310 310 313 317 320 319 316 316 317 317 317 315 315 315 315 315 316 316 316 317 318 318 320 319 320 320 319 319 318 317 317 317 318 319 318 316 316 316 314 313 313 314 314 313 313 315 316 316 315 315 316 316 316 316 315 315 315 314 314 314 313 313
311 311 311 311 311 311 311 312 312 312 311 311 311 311 311 311 311 311 311 311 311 311 310 311 310 311 310 310 314 318 319 318 315 315 316 316 317 317 316 315 315 315 315 316 316 316 317 318 320 319 320 320 319 319 317 317 318 317 318 318 317 317 316 316 315 314 314 314 313 313 314 315 315 314 314 315 316 316 316 316 315 314 314 313 313 313 313 312
311 311 312 312 312 312 312 312 312 312 312 312 312 312 312 312 313 312 312 312 312 311 311 311 311 311 310 311 316 317 317 316 314 315 315 316 317 318 317 315 315 315 315 315 315 316 316 318 319 318 319 319 318 318 317 317 317 316 316 316 316 316 317 315 315 315 314 313 313 313 314 316 314 313 315 317 317 316 316 316 315 313 313 313 312 312 312 312
311 311 312 312 312 312 312 312 313 312 313 313 313 313 313 313 314 314 313 313 313 313 312 312 311 311 310 312 316 317 316 315 313 314 314 315 316 317 317 315 315 315 315 315 315 315 316 317 317 317 318 318 318 317 317 316 315 315 314 315 316 316 316 315 315 315 314 314 314 313 314 315 314 312 314 317 316 315 315 315 314 313 313 313 312 312 311 312
311 311 312 312 312 312 312 312 312 313 313 313 313 313 314 314 314 314 314 314 314 313 313 313 312 311 311 314 316 316 315 314 313 314 314 314 316 317 316 315 314 314 314 314 315 315 315 315 316 317 318 317 318 318 316 314 314 314 313 315 316 317 317 317 316 315 314 314 313 313 313 314 314 313 315 316 315 315 314 314 314 313 313 312 312 311 311 312
311 311 311 311 312 312 312 312 312 312 313 313 313 313 314 314 314 314 314 314 314 313 312 312 312 311 312 316 317 314 314 313 313 313 314 314 315 316 317 316 315 314 314 314 314 315 315 315 315 317 317 317 318 317 315 314 313 314 315 315 316 317 317 317 316 314 314 314 312 313 314 316 316 316 317 317 315 314 313 314 314 313 313 312 312 311 311 312
312 312 312 312 312 312 312 312 312 312 312 312 312 313 313 314 314 314 314 314 313 313 312 312 312 312 313 316 315 314 313 313 313 313 314 314 315 316 316 316 316 315 314 314 314 314 314 315 315 316 316 316 317 315 315 315 314 315 316 316 316 316 317 317 315 313 314 313 312 313 314 316 317 318 318 317 315 314 314 314 314 314 313 312 312 311 311 311
314 314 314 313 313 313 313 312 312 312 312 313 313 313 313 313 314 313 314 314 313 313 312 312 312 313 315 316 315 314 313 313 313 313 313 314 315 315 316 316 316 314 314 314 314 314 314 314 315 317 316 315 315 315 316 317 316 316 316 316 317 317 317 317 314 314 315 313 312 314 315 316 317 318 318 317 315 314 314 315 315 315 314 313 312 312 312 312
312 314 314 314 315 314 314 314 313 313 313 313 313 313 313 313 313 313 313 314 314 313 312 312 312 313 315 316 315 315 314 314 314 314 314 314 315 315 315 315 314 314 313 314 314 314 314 314 315 316 315 315 315 316 318 318 318 318 317 316 318 317 318 318 314 314 315 313 312 313 315 316 317 317 317 316 316 315 314 315 316 315 315 314 312 312 312 312
310 310 311 312 313 314 315 315 314 314 314 314 314 314 313 313 313 313 314 314 314 313 312 313 314 314 315 316 316 316 315 315 314 314 315 315 315 315 314 314 313 313 313 313 313 314 314 315 315 315 316 316 316 317 317 316 316 317 318 318 318 318 317 317 315 314 314 313 313 313 314 315 316 317 317 316 315 315 315 315 315 315 315 315 313 312 312 312
310 309 309 310 310 311 312 313 314 314 315 315 314 314 314 313 314 313 314 314 313 313 312 313 314 314 316 316 316 316 316 315 315 315 315 315 315 315 314 313 313 313 313 314 314 314 315 316 316 316 316 316 316 317 316 316 316 315 316 316 317 317 316 317 316 314 313 313 314 314 314 315 315 316 317 316 315 315 315 315 315 315 315 315 315 313 312 312
312 312 311 310 310 309 309 310 311 312 314 315 315 315 314 314 314 313 313 312 313 314 315 316 315 315 316 316 315 315 315 315 315 315 315 314 314 314 313 312 313 313 315 316 315 315 316 317 317 317 317 318 317 317 317 318 318 316 317 317 316 316 316 317 317 313 313 314 313 314 315 315 315 315 316 317 316 316 315 315 315 315 315 315 315 314 313 312
314 314 313 313 312 311 310 309 309 309 310 312 313 314 314 316 316 315 314 312 313 314 315 316 316 316 316 316 314 314 314 314 314 314 314 314 314 314 313 313 314 314 315 317 317 317 316 317 318 318 318 318 319 318 318 318 318 317 317 317 316 316 316 318 317 312 312 314 314 315 315 315 316 316 316 317 316 316 316 316 315 315 315 315 315 315 313 312
314 314 314 314 314 313 312 311 311 310 309 309 310 311 313 316 316 315 314 312 313 314 313 314 314 314 314 315 314 313 313 314 314 313 314 314 314 314 314 314 315 315 315 317 317 316 316 316 317 318 318 318 318 319 319 318 317 316 316 316 316 317 317 318 316 311 311 313 314 315 315 315 316 315 316 316 315 315 315 316 316 316 316 316 316 315 314 313
314 314 314 314 314 314 313 312 312 311 311 310 308 309 311 312 313 313 311 312 314 314 313 313 312 312 312 312 313 312 312 313 313 313 313 313 313 314 315 314 315 316 317 317 317 316 316 317 317 317 318 317 317 317 317 317 316 316 316 316 316 317 318 318 315 310 310 312 314 315 314 315 315 315 315 315 315 315 315 316 316 316 316 316 316 316 315 313
313 313 313 314 314 314 313 313 313 312 311 311 309 308 309 309 310 310 310 312 313 314 313 312 312 312 312 312 312 312 312 312 313 314 313 313 313 313 315 315 314 316 318 317 317 317 317 317 316 317 317 317 316 315 315 315 315 316 317 316 316 318 319 318 314 311 310 311 313 314 313 314 314 314 314 315 315 315 316 316 316 316 316 316 316 316 316 313
312 312 312 312 312 313 313 313 313 313 312 311 310 309 309 309 309 309 311 312 313 314 313 312 312 312 312 312 313 312 312 312 313 314 314 313 313 313 315 316 314 315 317 317 317 317 318 317 315 315 316 316 316 315 315 315 315 317 317 317 317 318 319 318 316 313 312 312 311 312 314 314 316 316 316 316 315 315 316 316 316 316 315 315 314 315 316 314
312 311 311 310 311 311 312 312 313 313 312 311 310 309 309 309 309 310 311 312 314 315 313 312 312 312 312 312 312 312 312 312 313 313 313 313 314 314 314 315 314 314 315 316 315 316 317 316 313 315 316 316 316 316 316 317 315 316 318 318 318 318 318 319 318 315 315 315 312 313 315 316 316 317 318 316 314 314 314 314 314 315 315 315 314 315 315 314
313 312 312 311 311 310 311 312 312 312 311 310 310 310 309 309 311 311 311 312 314 314 313 313 313 313 313 312 312 312 312 313 313 312 312 312 313 313 313 314 314 313 315 316 315 316 316 313 312 316 317 316 316 316 317 318 316 315 319 319 319 318 318 319 318 316 316 316 314 313 315 316 316 316 317 316 315 314 315 315 315 314 315 316 316 316 315 313
314 314 314 313 313 311 311 312 311 311 312 312 311 311 310 310 312 311 309 309 312 315 315 314 314 315 315 313 312 312 312 312 312 311 312 312 312 313 312 313 314 313 314 316 315 316 317 314 312 315 316 316 316 316 317 318 316 317 317 317 317 317 318 318 317 316 315 316 315 313 315 316 316 316 316 316 315 314 315 316 316 315 315 315 315 316 315 313
315 314 314 314 314 313 312 312 310 310 311 312 311 310 310 310 310 310 308 308 312 317 316 313 313 314 313 312 312 312 311 311 313 312 311 311 312 312 312 313 314 314 313 315 315 315 317 316 315 315 315 316 317 317 318 318 318 316 314 314 315 315 316 316 315 315 315 315 315 315 315 315 316 316 316 316 315 314 314 314 315 315 316 315 315 316 316 314
315 315 315 315 315 314 313 311 310 309 310 311 311 310 310 309 309 309 309 311 314 316 314 313 313 313 312 312 311 311 310 311 312 311 310 311 311 311 312 312 313 314 313 313 315 317 315 312 313 315 315 317 315 312 314 318 317 313 311 313 313 313 313 314 314 314 314 315 316 316 315 315 317 316 316 316 315 314 315 314 315 316 316 316 315 316 316 315
316 316 316 316 315 315 314 313 311 309 309 310 310 310 309 309 310 310 312 313 313 314 313 312 313 314 314 312 312 312 311 310 309 308 309 310 310 310 310 311 312 313 314 313 314 315 311 307 309 313 315 314 311 308 308 313 313 311 312 313 313 313 312 312 313 312 314 317 317 317 316 315 316 316 316 315 315 315 316 315 316 316 317 317 317 317 316 315
318 317 317 317 317 316 315 314 312 309 309 310 311 309 309 310 310 312 314 312 311 314 313 313 314 315 314 314 316 314 312 312 309 309 310 309 310 310 310 312 312 313 314 314 314 315 312 309 310 312 311 310 310 309 308 308 309 312 313 313 315 315 313 313 312 312 315 318 317 317 317 316 316 315 315 315 315 315 316 316 316 316 317 318 317 316 316 314
320 320 318 317 318 317 317 316 312 309 309 310 310 309 310 311 311 312 313 311 312 315 315 315 315 315 315 316 318 316 313 314 311 310 311 310 310 311 311 313 314 314 315 315 316 317 316 314 313 312 309 309 313 313 310 307 308 312 313 313 315 316 315 316 316 315 316 317 315 315 317 318 316 315 314 315 315 315 315 315 316 316 316 317 317 316 315 313
321 321 320 319 319 319 318 318 314 309 309 310 309 309 310 311 314 315 313 312 316 316 316 318 317 316 317 317 318 316 315 315 312 310 312 312 312 312 312 313 315 318 317 316 317 317 318 317 314 313 311 310 313 314 314 311 309 310 313 314 316 317 318 320 319 317 318 317 313 312 314 316 314 313 315 315 315 315 315 315 316 316 315 316 318 317 315 313
322 321 321 320 320 320 319 319 317 311 309 310 309 309 311 312 315 317 315 314 316 315 315 317 316 316 317 317 318 317 316 316 313 311 313 313 312 313 313 313 315 317 316 315 316 316 317 317 315 315 314 312 312 314 316 315 311 311 313 314 316 317 317 318 317 317 317 316 314 311 312 313 312 313 315 315 315 316 315 315 315 315 315 316 316 315 314 313
322 322 322 321 319 319 319 319 319 313 309 309 310 310 311 313 314 316 316 316 315 315 314 314 316 317 316 317 317 316 316 317 315 312 312 313 313 314 314 314 314 315 315 315 315 315 316 318 318 315 313 312 313 315 316 316 314 312 313 314 315 316 316 316 317 316 314 314 314 312 312 312 313 314 316 315 315 315 315 315 315 315 315 315 314 313 312 313
322 322 322 321 318 319 320 318 318 315 309 309 310 310 311 313 313 314 315 315 315 316 314 314 317 317 316 317 317 316 317 317 315 314 314 314 314 315 316 316 315 314 314 315 316 316 315 317 317 311 310 309 309 312 314 314 315 313 313 314 315 315 316 317 318 316 313 313 315 314 314 314 314 315 316 315 314 314 314 315 314 314 315 314 314 313 312 312
323 322 321 321 319 319 319 318 318 315 310 310 310 311 311 312 313 314 314 313 314 316 315 314 316 316 315 316 317 317 316 315 314 314 315 315 315 316 316 316 316 315 315 315 317 318 316 316 316 311 311 308 304 307 310 310 312 313 313 314 314 313 313 314 316 316 314 316 316 316 316 315 315 316 315 314 313 313 314 314 313 313 314 315 315 313 312 312
322 321 321 321 320 320 319 317 318 314 310 310 311 312 312 312 313 313 312 312 313 315 314 314 315 316 315 315 316 318 315 315 315 314 314 316 316 317 316 315 316 316 315 314 316 318 317 317 316 310 310 307 303 307 310 308 309 310 310 311 311 313 314 313 315 315 315 316 315 315 316 315 315 316 314 313 313 313 313 313 312 312 314 315 315 313 313 312
320 320 319 320 320 320 319 317 315 312 310 310 310 312 313 312 312 312 311 311 313 314 313 313 315 316 316 315 316 318 315 315 316 314 314 316 316 317 316 316 317 316 314 314 315 316 315 316 316 308 306 308 306 308 311 311 308 307 307 309 309 311 313 313 314 314 314 315 315 315 316 314 315 316 315 314 314 313 313 313 312 312 313 314 314 313 313 313
319 317 317 319 319 319 319 316 312 310 310 310 311 312 313 313 313 311 310 310 313 313 312 312 313 314 315 316 316 317 316 316 317 315 315 316 316 316 316 316 318 316 315 314 315 315 315 315 315 308 304 308 309 309 311 312 311 308 308 309 309 309 310 311 313 313 313 314 314 314 315 314 314 315 315 315 314 314 313 313 314 314 313 314 314 313 312 312
317 316 316 318 318 318 317 313 309 309 309 310 311 311 311 312 312 312 310 310 311 312 311 311 313 312 313 314 314 315 316 316 317 316 315 315 315 315 315 316 318 316 314 313 313 315 314 315 315 311 308 310 312 312 313 313 314 312 310 310 311 311 311 312 313 314 313 313 314 315 315 314 314 314 314 313 313 314 314 314 315 315 314 313 313 312 312 312
316 317 316 316 317 317 315 310 309 308 308 309 311 311 311 312 312 312 311 310 310 310 309 310 312 312 313 313 312 314 314 314 315 315 315 315 314 314 315 316 317 315 313 313 313 314 315 315 315 314 314 314 313 311 311 311 312 312 312 312 312 312 312 313 315 314 313 312 313 314 315 315 314 314 313 312 312 312 313 313 314 315 314 313 312 311 311 311
315 316 316 315 316 317 315 311 309 308 307 309 310 311 312 312 312 312 311 310 310 310 309 310 310 310 311 312 311 313 313 312 313 314 314 315 315 315 316 316 315 314 313 314 313 312 313 315 314 314 315 315 312 307 305 306 308 310 311 312 312 312 312 313 314 313 313 313 313 313 314 315 314 314 314 313 313 312 313 313 312 313 313 312 311 311 311 311
314 315 314 314 314 315 315 313 311 308 307 308 309 310 311 312 312 312 312 311 311 311 310 310 310 310 310 311 311 312 312 311 312 313 314 314 314 313 314 315 314 313 313 314 313 312 313 314 314 313 314 315 313 310 308 306 307 309 310 311 313 313 313 314 313 311 313 314 314 314 314 314 314 315 314 314 314 312 311 312 311 312 312 311 311 311 310 310
313 313 312 312 313 313 314 314 313 311 309 308 309 310 311 312 312 312 312 312 311 311 311 310 309 309 310 311 311 311 311 311 311 312 313 313 312 311 312 314 314 313 312 313 312 312 313 313 313 313 314 314 314 314 313 310 307 308 310 311 312 313 313 313 312 312 313 313 313 313 313 313 314 314 314 313 313 312 311 311 310 310 311 311 311 311 310 310
312 313 312 310 310 311 311 312 312 312 311 310 309 310 311 312 313 312 312 313 312 311 311 310 309 308 309 309 309 309 310 311 311 311 311 311 311 310 308 308 311 311 310 309 309 311 313 313 313 313 313 313 314 314 315 313 309 309 310 311 311 313 313 313 312 313 313 313 313 313 314 313 313 313 313 313 313 313 312 312 311 310 310 310 311 311 309 309
311 314 312 310 310 310 310 310 310 311 312 311 310 311 312 312 313 313 312 313 313 312 312 311 309 309 309 309 310 310 310 310 311 311 310 309 310 310 306 305 308 308 307 306 307 310 313 312 312 312 312 312 312 312 313 314 312 311 311 311 311 312 313 314 313 313 313 313 313 314 314 314 314 312 312 313 313 313 312 312 312 312 311 310 310 310 309 309
310 312 312 311 312 311 310 309 310 310 311 311 311 312 313 313 313 313 313 313 313 312 312 312 310 309 310 310 311 311 311 311 311 311 310 309 309 310 307 308 309 307 306 307 307 308 311 311 311 312 312 312 312 311 312 313 313 313 313 312 312 312 312 313 313 313 313 313 313 314 314 314 313 312 312 313 312 312 312 312 311 311 311 311 310 309 309 309
308 311 311 312 312 313 312 311 310 310 309 310 311 311 313 314 314 314 314 313 312 311 312 313 312 310 310 310 310 310 311 312 313 312 311 310 310 310 309 311 310 306 306 308 307 307 309 310 311 312 311 312 312 312 312 312 312 312 313 313 313 313 312 312 312 312 313 313 313 313 313 313 313 312 312 312 312 312 311 311 311 311 311 311 311 310 310 310
306 308 308 309 309 310 311 311 311 310 309 309 310 310 311 312 313 313 314 314 313 312 311 312 313 312 311 310 309 310 310 312 314 314 313 311 311 310 310 312 311 306 306 308 308 307 309 310 311 311 311 312 311 311 312 312 312 312 312 313 313 312 313 312 312 312 312 312 312 312 313 313 312 312 312 312 312 311 311 311 311 311 311 311 311 311 310 310
302 304 304 304 305 306 309 310 311 311 310 310 310 310 311 312 312 312 313 314 314 313 312 312 312 313 313 312 310 310 310 311 312 313 313 312 312 312 311 312 312 309 307 307 307 308 308 309 310 310 311 312 311 312 312 311 311 311 311 312 311 311 312 312 312 312 312 312 312 312 313 312 311 312 312 311 311 310 310 310 310 311 310 311 311 310 310 310
299 300 300 300 302 305 307 309 310 310 311 311 311 310 310 311 311 312 313 314 314 314 314 313 313 313 313 313 312 311 311 311 311 311 311 312 312 312 311 310 310 310 309 307 307 307 308 309 309 310 311 311 311 312 311 311 312 312 311 311 311 311 311 311 311 311 311 312 312 312 311 311 310 311 310 310 310 310 310 310 311 311 311 311 311 311 310 310
Wind_Speed
4 4 5 5 5 6 6 6 6 6 5 6 6 6 6 6 6 6 6 6 7 7 6 6 6 6 8 8 8 8 8 8 8 9 11 10 9 9 7 5 3 2 1 0 0 0 3 4 6 8 6 6 7 6 6 5 5 5 4 5 5 6 4 1 3 3 3 5 2 7 9 10 7 7 9 10 11 13 12 13 13 13 17 20 23 18 16 19
3 4 4 5 5 5 6 6 6 6 6 6 6 6 6 6 7 7 7 6 6 7 7 7 6 6 8 9 10 10 10 10 11 13 15 13 10 9 8 7 4 3 2 2 2 1 4 6 7 9 8 8 8 7 7 5 5 6 4 4 6 5 2 1 4 4 4 6 2 3 7 10 7 5 8 8 10 15 15 15 15 16 17 21 28 24 22 24
4 4 4 4 5 5 6 6 6 7 7 7 7 8 8 7 7 7 7 7 7 7 7 7 7 7 7 8 10 11 12 12 15 17 18 15 13 11 9 9 6 4 3 3 4 3 5 6 7 10 9 9 8 6 6 6 6 7 5 6 5 2 2 3 4 5 5 5 4 4 5 8 8 5 7 8 12 14 16 17 15 19 22 23 28 29 28 28
6 6 5 5 5 5 6 6 6 7 7 8 8 9 9 9 9 9 9 8 8 7 7 8 8 8 8 8 8 10 11 12 15 19 18 15 15 13 11 10 8 6 5 4 4 5 6 6 5 9 8 9 7 6 7 8 6 3 5 7 3 3 4 3 3 4 3 3 7 6 3 7 9 7 9 9 10 12 16 20 19 22 24 22 26 29 30 31
8 7 7 6 6 6 6 7 7 7 7 8 8 9 9 10 10 10 10 10 10 9 8 8 8 8 8 8 8 7 7 6 6 10 13 14 15 13 12 12 10 9 6 5 5 5 6 3 4 7 8 8 6 7 8 9 6 3 8 11 5 2 5 1 2 3 3 3 7 7 6 6 6 9 13 13 12 12 11 13 17 21 20 17 24 27 28 30
10 9 8 8 8 8 8 8 8 8 8 8 9 9 9 10 10 11 11 11 11 11 10 9 9 8 8 8 8 7 6 4 3 3 6 10 14 14 14 13 12 11 9 7 6 5 4 3 6 8 8 8 7 7 5 8 8 6 8 10 7 5 6 1 2 3 3 5 7 7 7 5 6 10 15 18 22 21 13 11 12 14 14 14 20 24 25 27
12 11 11 10 9 9 9 9 9 9 9 9 10 10 10 10 11 11 11 12 12 12 11 11 10 10 9 8 9 8 10 12 12 9 7 8 12 14 14 14 13 12 10 9 6 5 5 5 8 8 8 7 7 8 4 5 9 7 7 7 5 5 7 4 2 5 4 6 8 6 5 7 11 12 11 19 28 27 21 21 21 18 16 15 19 24 25 26
14 13 13 12 11 11 10 11 11 11 11 10 10 11 11 11 11 11 12 12 12 13 13 12 12 12 10 9 8 8 12 17 17 15 13 13 13 14 15 15 14 13 12 10 7 6 7 8 9 6 8 6 4 5 3 4 9 10 9 7 4 4 8 7 4 7 6 8 8 7 9 12 15 11 10 23 29 25 23 23 26 27 23 20 22 24 25 26
16 16 15 15 14 14 13 13 12 12 12 12 12 11 12 12 12 12 12 13 13 13 13 14 14 13 11 8 7 8 12 15 14 13 14 15 16 16 17 16 15 13 12 11 9 8 7 7 7 5 8 7 5 4 3 4 6 7 8 7 5 7 8 7 8 9 8 9 7 8 13 15 14 8 14 29 31 26 23 22 23 26 27 25 25 26 27 27
18 18 18 17 17 16 16 15 15 14 14 13 14 13 14 14 14 14 14 15 14 15 15 15 15 11 10 8 6 6 10 12 11 11 11 13 15 16 17 16 15 13 11 12 10 9 8 8 7 7 9 7 7 5 4 5 3 3 7 9 10 12 10 9 10 10 8 8 10 11 12 12 9 6 13 20 19 18 18 19 20 21 24 25 26 26 27 29
21 20 20 20 19 19 18 18 17 16 16 15 15 15 16 17 16 16 16 16 16 17 17 17 15 11 9 8 9 9 11 12 12 12 11 12 13 14 16 16 15 14 12 11 11 10 10 10 9 8 6 3 4 5 5 7 6 6 7 10 13 14 14 13 13 12 9 7 11 11 11 13 7 7 20 20 12 13 13 16 19 20 22 21 23 25 26 29
23 23 23 22 22 21 20 20 19 19 18 17 17 17 18 19 19 18 18 18 18 18 18 18 15 10 8 9 14 16 16 16 15 15 14 13 13 14 15 15 15 15 13 10 11 11 10 10 9 8 6 5 5 3 3 5 5 6 6 9 13 12 13 16 15 12 10 6 8 6 8 14 12 16 31 26 18 17 13 14 17 20 23 20 22 23 26 29
25 25 25 24 24 24 23 22 22 21 21 19 19 18 19 20 20 20 20 20 19 19 19 18 15 10 8 10 16 17 17 17 16 16 16 15 14 14 14 15 15 15 13 12 11 11 10 10 9 8 9 8 7 4 4 3 3 6 6 7 9 10 11 12 11 9 9 7 8 6 7 10 13 23 30 19 18 19 14 15 17 19 21 21 22 23 27 29
27 27 27 27 26 26 25 24 24 23 23 22 21 20 20 21 21 21 21 21 21 20 19 18 14 10 9 12 18 19 18 18 17 17 16 15 15 14 14 14 14 14 13 12 12 11 10 10 9 9 9 8 7 6 7 5 5 5 5 5 6 9 6 7 10 10 9 6 9 8 8 10 10 16 19 16 17 17 14 16 17 18 20 21 23 25 29 30
30 30 29 29 29 28 27 26 26 26 25 24 23 22 21 21 22 21 21 21 21 20 20 18 14 9 9 15 19 19 18 17 18 18 16 15 14 13 13 14 13 13 13 12 12 11 10 9 8 7 5 5 6 6 7 7 6 6 5 6 7 7 5 6 10 12 8 5 11 10 6 10 13 8 9 16 15 13 14 15 15 18 19 20 24 28 30 31
31 32 32 32 32 31 30 29 28 28 27 26 25 24 23 23 23 22 23 22 22 22 19 16 14 10 8 13 17 17 17 18 18 16 14 14 13 13 13 13 12 13 12 12 11 10 10 8 7 7 4 4 5 5 7 7 7 7 6 8 8 8 8 5 7 10 7 5 11 13 7 9 11 4 9 14 14 13 14 15 17 20 21 21 24 29 32 32
29 31 32 33 34 33 33 32 31 30 29 28 27 26 25 24 25 25 25 24 23 22 18 14 11 9 10 15 16 16 19 19 17 14 12 12 12 13 12 11 12 12 10 10 9 9 8 6 5 6 7 6 6 5 5 7 7 6 6 7 9 11 11 7 3 6 9 6 9 13 11 14 15 12 11 12 14 15 16 19 22 24 25 23 23 28 33 34
26 27 29 30 32 33 34 34 33 32 32 30 29 28 27 26 27 27 26 25 22 17 15 12 7 4 10 15 14 14 17 16 14 13 11 10 12 13 12 12 10 9 8 7 8 9 8 6 4 4 6 7 7 6 6 8 9 9 8 8 9 11 11 11 5 6 11 9 10 12 13 18 19 19 22 20 16 16 18 22 25 27 29 27 24 26 29 34
25 25 26 27 28 29 30 32 33 34 34 32 30 29 29 28 26 25 25 22 15 9 8 8 11 5 6 8 11 13 14 12 10 12 12 11 12 13 14 12 9 9 7 5 7 10 8 5 5 5 7 9 10 12 12 14 13 14 12 9 11 11 11 15 6 6 10 8 10 14 15 18 20 18 20 23 22 20 21 22 24 28 29 26 25 26 27 33
25 26 26 27 27 27 26 28 29 31 32 32 31 29 25 19 14 13 13 16 18 16 14 12 13 14 13 12 13 13 13 13 13 14 13 12 12 12 13 10 7 9 9 7 6 7 7 6 7 10 12 13 14 15 16 15 11 12 11 10 13 12 13 16 7 6 7 6 10 14 15 18 21 19 18 22 23 22 23 23 26 29 27 23 24 26 28 32
24 25 26 26 27 27 25 26 26 26 26 27 28 24 17 13 10 7 7 14 20 21 22 22 19 21 22 20 19 20 17 15 17 19 15 12 12 10 11 12 8 7 11 10 4 4 5 6 11 17 17 13 10 8 12 13 11 11 12 11 12 11 14 14 3 6 6 4 9 14 15 19 20 17 18 21 20 20 23 24 27 29 26 23 23 26 27 26
23 24 25 26 26 25 24 25 25 24 23 22 22 17 16 19 18 16 13 13 18 22 22 24 26 28 28 27 28 29 22 14 16 20 18 15 16 12 11 13 10 7 9 9 4 3 6 10 18 20 11 5 3 4 8 12 12 11 9 9 10 10 12 8 4 6 5 4 7 11 13 16 19 18 18 21 20 21 28 30 28 27 25 23 23 22 21 21
22 22 23 24 25 24 23 23 23 22 21 20 18 15 16 18 17 17 14 10 15 23 25 26 28 29 29 30 31 29 22 18 17 19 22 19 18 16 13 12 12 10 8 10 10 7 8 10 14 12 4 4 7 6 7 9 9 10 8 7 10 10 10 6 2 4 6 6 7 11 11 13 16 17 18 25 26 23 28 32 29 26 25 26 25 21 17 19
21 22 23 23 23 23 21 21 21 21 21 20 18 16 14 13 12 12 11 9 11 16 23 27 26 27 28 27 27 26 23 22 17 15 22 23 18 14 15 13 12 11 10 14 15 13 13 7 2 1 3 7 10 7 7 8 7 9 10 10 11 11 11 9 2 1 7 8 4 8 11 11 12 14 14 15 16 16 20 23 23 26 28 29 29 24 19 19
21 22 23 22 23 22 20 20 19 19 18 17 16 13 12 10 9 8 7 8 9 9 16 21 20 24 28 28 26 21 16 18 19 19 21 24 20 11 9 11 11 12 14 17 14 14 15 5 5 3 4 6 9 8 9 9 8 9 11 14 16 15 14 11 5 5 7 6 2 2 9 8 7 11 10 4 5 8 12 13 16 23 25 23 25 25 20 20
21 22 22 22 23 21 18 16 14 14 12 12 12 9 8 6 4 5 4 6 8 5 6 10 11 12 16 21 23 16 7 10 18 22 20 21 24 14 5 7 8 9 10 10 9 8 6 2 3 6 7 6 8 11 11 10 8 8 5 7 12 13 13 11 6 3 6 6 1 1 7 9 5 7 9 5 6 9 8 8 13 17 19 19 23 23 19 19
22 22 22 23 22 21 16 12 13 13 9 10 10 7 6 5 3 3 3 7 9 6 8 8 8 8 9 11 18 14 2 3 8 14 19 21 23 17 8 7 7 5 2 1 5 4 4 4 3 6 7 7 9 10 10 11 9 5 1 2 2 6 9 8 5 5 6 8 4 5 4 11 10 7 11 10 10 11 9 10 11 13 18 23 26 23 19 20
23 23 24 24 23 21 17 14 14 13 12 12 9 8 7 7 5 2 1 8 4 7 7 6 7 8 7 10 20 13 3 1 4 8 20 22 20 14 11 13 10 7 7 6 7 2 3 5 6 8 7 8 7 3 3 10 9 2 3 3 3 1 2 3 4 5 6 8 7 7 8 8 12 6 12 14 13 13 13 15 13 12 17 23 27 23 18 20
23 23 24 24 24 22 19 16 13 12 14 11 8 10 10 10 5 1 4 7 1 6 5 7 7 7 8 10 16 11 3 1 0 4 14 17 18 10 5 10 10 6 8 10 10 2 3 2 3 7 8 6 3 4 4 4 5 2 4 4 6 3 2 2 4 4 6 9 9 8 12 7 13 4 10 11 11 11 12 13 12 13 16 20 24 23 18 18
24 24 24 25 24 22 20 17 14 13 12 10 10 12 12 9 3 3 9 6 1 2 5 7 7 8 12 10 9 11 6 2 2 7 8 6 12 9 3 2 5 5 6 8 10 5 3 4 1 4 6 2 5 6 5 3 2 5 5 2 2 2 2 2 4 2 5 11 10 12 17 11 10 2 9 9 10 12 11 9 10 12 15 16 20 21 19 19
24 24 25 26 24 21 19 17 15 12 11 11 12 16 13 5 2 8 10 1 3 3 6 6 7 9 14 11 7 10 11 6 5 9 6 3 7 9 4 2 3 4 6 7 8 7 6 5 3 3 4 4 5 3 3 4 2 4 3 2 2 4 3 3 4 3 6 10 5 12 20 17 11 3 7 8 11 14 11 8 10 10 11 14 17 19 19 19
25 24 26 27 25 22 19 16 14 10 11 12 15 17 9 2 6 11 6 5 1 6 7 6 8 8 12 11 6 7 7 6 9 10 7 5 6 8 8 7 6 4 6 7 6 5 6 8 7 4 4 7 6 2 2 2 3 4 5 4 4 4 3 4 5 4 8 8 2 8 12 14 13 9 8 8 9 13 10 7 9 9 10 13 14 16 18 18
26 25 27 27 27 25 19 16 13 9 11 13 16 13 5 6 10 10 8 5 2 2 4 4 7 8 8 9 6 5 3 4 10 11 7 7 6 8 11 11 6 3 4 5 4 4 3 3 8 6 2 10 12 7 5 4 7 8 8 7 6 5 5 6 6 6 9 6 3 5 4 7 9 8 14 17 13 14 12 10 13 13 14 14 12 14 17 18
28 27 29 31 30 26 21 19 15 10 12 14 12 9 6 11 11 5 10 11 4 2 4 4 6 7 7 7 4 6 5 4 9 10 7 7 6 7 10 13 11 5 2 3 3 5 6 5 8 9 4 13 17 12 5 3 7 10 7 7 7 6 6 6 7 8 8 5 1 4 2 5 4 1 12 19 18 17 15 14 17 19 20 17 12 14 16 18
29 29 30 31 32 30 26 23 17 12 14 14 7 6 9 12 9 4 7 9 5 4 4 3 6 7 8 7 3 5 7 4 8 9 7 9 8 8 9 11 15 10 4 5 3 3 7 9 7 6 3 14 15 9 4 4 4 7 6 7 8 6 7 7 9 6 3 6 5 5 4 6 6 3 7 11 13 16 15 14 15 19 23 20 16 17 18 19
30 30 32 34 36 35 31 25 19 16 19 14 4 8 13 11 6 3 4 5 5 6 7 3 5 6 8 6 5 7 5 2 7 6 6 10 10 10 8 7 15 16 10 7 3 3 6 5 5 5 1 7 4 1 4 3 2 5 6 7 4 1 3 7 9 3 1 6 9 6 6 7 8 8 9 13 12 14 12 10 12 17 20 19 19 22 23 23
34 32 36 39 39 37 35 29 23 21 22 14 7 11 12 9 8 5 1 2 1 6 8 6 7 8 9 7 6 10 6 3 7 6 5 7 8 11 10 6 13 18 17 12 6 5 6 4 4 5 2 2 3 4 1 2 1 4 5 4 1 2 1 4 7 4 4 10 9 10 14 11 9 7 8 15 14 14 11 10 11 13 13 14 19 27 29 28
40 37 39 45 44 40 37 32 29 29 23 10 10 15 10 8 11 7 3 3 1 7 9 9 8 8 10 10 7 11 10 6 8 7 5 6 6 10 13 8 11 18 23 20 8 3 3 4 3 2 0 3 3 1 3 3 3 1 2 2 1 2 4 5 6 5 7 9 8 14 20 15 10 7 6 14 16 14 13 12 10 10 10 10 17 26 28 27
38 33 31 41 44 40 38 34 33 30 19 8 11 13 8 9 11 5 4 4 4 7 10 11 9 7 9 10 6 9 12 9 9 7 7 7 6 9 15 10 10 17 23 20 10 4 2 4 4 1 2 3 4 4 5 5 4 1 4 3 1 2 3 5 5 5 7 8 9 13 17 13 8 6 8 15 15 13 12 11 10 11 13 13 17 25 27 26
29 20 18 32 33 30 36 35 29 21 11 6 11 11 8 8 8 7 9 9 5 5 8 10 10 9 8 9 7 5 9 9 8 8 7 8 7 7 13 12 8 11 16 15 11 6 2 4 5 1 1 3 5 7 10 10 9 6 5 6 6 3 1 3 4 6 6 7 8 8 12 12 4 1 5 10 12 12 11 11 9 10 14 15 19 27 30 30
21 11 13 28 26 22 30 28 18 11 5 4 9 10 10 10 10 10 11 10 7 5 6 7 9 10 9 9 9 6 6 6 8 9 7 8 10 7 10 14 9 7 7 7 9 8 4 4 7 3 3 7 7 8 10 10 8 8 9 9 9 9 5 4 7 6 4 5 8 7 11 15 3 6 5 7 8 8 9 9 7 8 13 16 20 25 27 29
15 9 11 22 23 23 29 19 8 8 5 7 13 9 7 9 12 11 9 9 8 5 4 4 6 8 9 11 12 8 6 6 7 9 7 9 13 8 10 16 14 13 10 5 6 8 4 2 6 8 6 5 4 2 2 2 2 3 6 8 8 9 9 9 8 5 3 4 8 7 10 15 4 8 6 6 7 5 8 9 7 8 15 18 21 24 24 26
12 11 12 17 22 28 26 9 4 8 4 9 15 12 11 8 7 7 7 9 8 2 2 5 7 9 9 10 12 9 8 8 10 12 10 9 11 9 9 15 13 12 10 5 2 3 2 1 6 8 5 4 2 2 1 1 2 4 7 8 9 10 10 10 6 2 1 5 8 7 9 14 5 7 3 4 4 7 9 11 10 10 13 17 21 24 24 26
13 13 11 16 25 31 23 7 5 9 7 7 9 14 18 12 9 10 8 8 8 3 4 8 8 9 9 9 10 10 9 9 11 13 11 9 7 5 5 12 13 10 9 6 5 8 5 4 6 6 5 5 5 5 4 3 5 7 8 9 11 12 12 8 4 1 4 13 17 10 8 14 8 3 5 10 7 7 8 12 15 14 13 17 21 24 25 26
11 9 10 21 36 37 21 10 9 9 11 12 10 13 15 10 14 22 17 12 13 9 6 7 4 4 6 7 9 12 12 10 10 10 10 9 5 3 2 7 12 12 8 5 2 10 7 4 7 8 9 8 10 12 6 4 6 7 8 12 14 15 16 11 5 4 10 18 19 13 11 16 14 12 17 18 11 8 8 11 14 16 18 19 21 25 28 28
8 5 5 14 31 35 23 14 11 7 9 13 10 10 14 12 13 22 21 15 17 18 11 6 2 4 5 7 9 12 12 12 10 8 8 8 4 3 4 3 7 7 8 12 5 4 2 3 9 13 13 12 15 16 6 3 6 8 10 15 15 16 18 13 7 10 13 14 13 15 18 19 19 22 28 26 19 15 13 8 8 13 19 22 23 26 29 30
8 4 4 6 14 21 18 15 11 5 7 12 7 6 15 16 10 12 16 14 17 17 11 6 6 5 8 10 9 9 10 11 11 10 11 11 10 7 2 4 4 8 10 10 5 2 2 5 12 18 21 20 21 23 19 13 11 11 11 14 15 16 16 15 15 19 16 10 11 17 22 21 19 21 28 29 24 19 16 14 15 17 19 20 23 27 30 30
10 7 9 10 9 8 10 15 17 11 10 12 8 8 14 16 12 11 12 12 13 12 7 6 11 15 17 16 11 9 10 10 10 11 11 12 13 12 6 0 2 3 2 3 2 2 2 7 12 17 22 23 22 25 27 25 20 15 14 16 17 17 18 22 25 23 16 13 15 19 24 24 19 19 25 27 24 19 18 23 26 28 27 20 17 24 28 29
13 12 14 14 10 7 14 24 24 18 16 13 9 10 13 14 15 14 11 8 9 12 12 11 13 19 23 21 14 11 10 10 11 12 11 12 13 11 7 7 6 4 4 3 2 3 2 6 12 16 19 20 20 22 25 27 23 19 18 18 16 17 24 29 25 16 17 24 26 27 29 26 18 19 25 27 27 25 27 30 29 30 34 27 19 22 30 32
12 12 13 14 12 10 15 21 18 13 15 14 9 10 13 17 19 16 13 12 9 9 14 18 19 20 21 20 17 17 17 17 18 18 14 12 11 9 7 8 7 3 5 5 4 5 6 8 11 12 13 15 18 22 26 26 23 22 21 18 17 20 25 26 18 12 18 27 28 27 26 18 15 20 22 23 28 29 27 27 27 32 40 34 25 27 34 37
18 17 16 13 8 7 11 11 10 9 11 12 11 11 13 20 23 18 15 21 20 13 14 21 23 20 18 19 19 19 22 24 25 26 24 18 15 14 10 8 9 6 4 5 4 5 7 9 8 8 10 13 16 21 25 25 23 22 20 20 25 28 23 17 14 14 18 21 19 19 17 12 14 20 17 17 24 25 21 21 25 35 43 34 25 29 36 36
22 22 19 14 6 5 7 7 8 10 8 8 13 15 15 20 23 19 15 19 25 27 24 22 19 16 14 17 21 26 34 37 35 36 37 33 28 23 15 11 14 11 7 6 5 5 7 7 7 8 10 12 16 20 20 18 15 14 17 24 30 30 23 19 20 22 21 17 13 12 13 13 17 19 18 21 24 20 18 21 26 34 37 28 22 28 34 33
Wind_Direction
343 348 350 352 352 353 352 352 355 356 356 352 350 347 345 345 342 342 345 350 349 348 347 336 308 283 272 266 262 260 258 257 260 260 256 245 236 235 230 229 211 200 212 191 9 342 250 243 235 235 228 228 229 223 235 230 197 201 224 243 252 263 272 344 280 284 316 307 149 164 194 222 223 182 215 233 229 238 239 234 227 228 232 233 240 238 239 248
316 325 334 339 339 342 341 344 346 347 350 348 348 347 346 344 342 339 333 333 331 330 333 334 325 302 283 269 265 267 267 268 269 265 256 243 233 229 226 233 220 214 240 253 301 326 251 248 236 227 217 222 230 224 233 224 197 222 250 254 257 276 318 0 293 278 284 292 291 181 204 225 236 183 194 223 232 227 232 238 226 230 233 234 242 237 238 247
292 301 309 316 323 329 328 333 336 340 342 343 345 343 345 345 344 343 337 335 328 323 318 319 320 314 303 278 268 265 266 276 275 266 257 242 233 229 227 233 227 224 239 256 287 276 270 281 241 216 216 226 219 209 223 215 217 232 241 258 265 312 318 266 255 257 267 278 274 256 211 220 239 195 175 221 245 231 227 233 222 226 230 228 239 239 237 243
286 289 293 297 305 308 312 319 322 328 332 334 338 338 341 341 342 343 341 340 335 330 319 313 309 307 308 295 280 266 269 280 270 262 257 242 233 231 229 234 231 231 237 254 280 276 293 310 233 204 220 235 208 202 222 207 214 211 215 259 314 28 304 265 222 248 250 256 264 258 220 229 234 201 196 225 249 243 235 235 226 227 234 223 227 240 239 238
288 289 291 293 296 299 302 308 311 317 321 325 327 329 333 334 337 338 339 340 338 336 329 320 310 303 301 297 290 270 266 276 265 260 253 236 232 231 232 237 234 235 239 250 273 291 301 305 210 204 227 239 206 211 224 199 207 243 237 257 292 303 281 276 142 238 222 238 257 241 235 236 214 207 220 227 238 248 247 244 233 231 243 230 222 239 242 237
290 291 291 294 296 298 300 304 309 313 316 319 320 323 325 328 331 332 335 336 336 336 333 328 320 312 300 293 290 266 242 258 302 301 257 231 232 233 236 241 237 239 242 248 269 292 290 237 213 217 234 245 222 221 210 185 207 251 250 252 265 257 259 262 148 234 229 237 243 234 243 228 212 232 230 228 236 244 252 259 246 231 240 238 228 237 241 239
291 293 293 295 296 298 302 305 307 310 315 317 318 320 321 324 327 328 330 331 333 333 332 331 325 320 309 291 285 262 237 255 270 274 268 243 236 236 240 243 241 242 242 248 265 271 264 242 236 239 250 256 241 231 188 178 210 238 265 261 256 243 245 248 208 237 237 235 243 246 255 235 234 251 245 236 240 243 250 257 256 247 241 240 236 239 245 247
289 291 293 295 296 298 300 302 304 307 311 313 315 317 317 320 323 325 326 327 329 328 328 327 324 320 310 286 279 265 240 254 268 266 261 251 243 241 243 244 244 245 244 246 246 251 260 258 255 258 259 260 260 239 192 215 221 222 256 271 255 244 248 244 224 235 232 233 245 248 250 247 246 260 265 249 248 247 246 253 257 256 250 244 243 245 249 248
286 288 290 291 294 296 297 299 300 302 305 308 310 311 312 314 317 320 320 321 323 323 323 323 321 316 304 282 266 264 251 260 274 268 257 249 246 245 244 243 244 245 247 249 244 248 261 267 261 262 277 284 285 261 198 235 235 220 258 281 259 255 254 237 235 239 227 228 227 232 246 251 247 259 269 255 255 255 246 245 250 254 252 245 243 244 248 248
282 283 285 287 289 291 293 295 296 298 300 301 304 306 307 308 311 314 314 316 317 319 320 320 322 315 297 274 242 255 267 269 274 267 259 253 248 247 244 240 243 245 248 253 252 252 257 270 273 273 284 281 264 251 202 235 285 298 284 285 267 261 257 234 241 237 222 233 218 223 251 254 232 221 261 255 250 248 235 232 233 241 248 243 241 240 244 247
278 279 281 282 284 286 288 290 292 293 294 295 298 300 301 303 305 307 308 310 311 314 317 319 322 313 290 262 233 251 278 278 275 270 262 256 252 249 246 241 243 245 247 255 257 255 256 270 280 280 279 271 255 240 227 249 281 311 302 290 269 256 249 233 237 229 215 231 213 221 259 255 220 210 248 245 237 238 215 216 222 233 245 238 238 238 239 244
276 276 278 279 280 282 283 285 287 288 289 290 292 294 296 298 299 302 303 306 308 310 313 315 318 310 288 255 242 258 278 279 276 271 260 256 254 251 248 244 245 246 247 252 258 259 262 273 277 271 273 291 290 260 248 258 270 295 291 286 277 261 251 232 226 216 206 203 181 201 268 248 213 224 248 245 234 238 214 213 221 232 244 236 232 233 237 243
276 276 276 277 278 279 280 282 284 284 285 285 287 289 291 293 295 298 299 301 304 306 310 311 312 303 281 256 256 269 280 277 273 269 261 256 252 248 249 247 246 247 246 245 253 259 262 272 271 264 272 281 282 279 292 271 251 281 263 264 280 276 260 218 198 182 191 195 161 175 273 256 214 224 243 239 224 228 214 220 226 231 240 234 229 230 236 241
277 277 277 277 278 278 279 281 282 282 282 283 285 286 287 289 292 294 296 298 299 303 306 307 304 291 264 262 273 277 277 276 271 263 258 254 250 250 250 248 246 244 245 245 251 258 259 267 266 262 263 260 268 285 282 247 216 255 256 240 253 267 262 170 166 168 179 192 167 180 259 271 258 239 231 215 215 220 216 226 228 232 234 231 232 233 237 242
277 278 278 278 279 279 279 280 281 281 281 282 283 285 286 287 289 291 292 294 296 299 301 301 295 281 265 271 277 278 276 272 266 260 255 251 248 250 248 246 245 241 241 243 247 253 255 258 255 255 252 236 253 271 269 253 228 228 246 256 242 243 246 176 175 187 188 172 174 190 243 262 276 277 189 192 212 217 227 239 235 237 236 229 233 237 239 242
275 276 277 277 278 279 279 280 280 280 280 280 282 284 285 287 288 290 291 292 294 296 297 294 283 269 267 273 272 275 275 267 263 259 251 246 242 243 245 242 238 238 239 241 245 248 249 246 241 246 239 230 240 247 265 271 254 224 226 262 261 253 261 220 175 197 203 147 178 208 250 265 269 270 161 185 215 223 236 250 249 250 246 233 232 240 243 241
275 275 276 276 277 277 278 279 279 279 279 280 281 283 285 287 288 289 290 290 291 290 287 281 274 266 259 264 267 269 268 263 258 252 244 241 237 235 237 236 233 234 235 238 241 236 232 225 228 243 231 230 238 237 258 264 262 248 224 248 263 264 268 255 194 195 196 185 205 215 236 256 262 266 248 222 216 222 238 254 258 259 256 245 235 240 244 242
278 278 278 277 278 278 278 278 278 278 278 279 281 283 285 286 289 290 288 286 284 283 280 259 236 258 254 250 255 259 263 263 251 244 241 232 232 229 225 228 228 223 222 232 229 213 212 214 218 255 237 225 224 218 230 240 256 279 269 263 273 271 264 264 265 166 177 199 230 224 231 251 257 263 266 260 240 229 238 253 260 260 258 253 242 236 240 244
279 280 281 281 281 281 281 280 278 277 276 276 279 282 285 288 290 287 282 276 262 252 269 225 195 226 267 255 263 264 264 261 244 242 244 236 233 226 219 220 215 209 212 215 203 194 198 207 215 248 243 225 219 213 224 240 258 280 283 278 279 279 269 269 274 151 178 205 226 233 242 254 259 259 263 266 263 255 253 256 260 260 258 256 247 238 235 243
281 281 282 283 283 285 287 287 284 281 279 277 277 280 285 288 288 282 267 251 241 242 256 236 217 243 264 270 277 278 269 263 258 254 252 244 229 217 213 206 199 211 223 224 198 180 193 220 228 238 240 237 234 230 235 249 267 278 277 274 270 271 270 270 265 150 184 223 236 243 249 256 261 263 263 265 268 269 267 263 259 260 259 255 249 240 235 243
282 282 283 284 284 286 289 290 290 290 288 284 281 281 279 269 263 274 269 260 262 261 258 251 246 249 254 259 264 270 270 269 266 257 253 239 212 202 197 191 199 218 221 221 197 147 189 223 235 240 248 254 259 257 251 256 266 266 264 270 269 262 266 270 239 145 174 218 252 258 259 260 261 263 265 264 262 262 265 264 261 263 265 261 253 244 238 241
286 285 286 285 285 288 290 290 290 292 294 293 288 280 265 260 260 265 273 279 273 264 257 255 252 251 255 257 259 264 262 261 260 249 246 226 199 202 191 185 213 225 198 192 182 186 208 230 241 245 252 264 274 277 264 261 262 262 255 258 263 261 268 267 130 139 174 207 263 270 270 269 267 266 264 259 253 251 254 257 260 266 269 264 257 250 239 230
290 290 289 288 288 291 292 291 290 291 291 292 291 282 268 267 265 264 267 275 272 262 257 256 252 252 254 254 256 256 246 244 247 241 241 220 192 204 206 195 224 227 191 194 209 217 219 234 246 247 227 233 255 240 242 257 251 244 240 248 255 254 265 263 153 157 195 217 274 289 281 272 268 262 254 251 249 246 248 252 259 263 262 260 258 254 238 223
294 294 293 292 292 294 296 294 292 291 289 288 288 282 274 272 265 269 271 268 268 257 255 256 250 248 249 250 252 246 237 239 238 232 233 214 186 198 214 217 232 233 219 217 220 227 238 239 184 170 177 229 252 228 214 243 246 233 227 235 249 251 257 263 301 338 239 231 256 291 281 266 255 245 239 241 242 242 242 247 257 257 256 259 260 257 239 222
296 296 297 297 296 299 302 299 293 289 287 285 284 277 273 269 259 275 289 271 256 234 247 251 244 244 244 244 243 234 233 240 234 230 224 206 188 184 208 217 226 238 235 229 231 240 247 232 117 191 216 211 239 239 219 226 250 245 223 229 245 257 265 269 322 358 289 260 177 288 292 274 234 229 230 186 174 224 229 232 243 251 257 259 258 256 238 223
297 297 299 299 299 304 307 304 293 290 287 279 278 271 261 249 250 295 316 278 256 197 198 219 219 230 231 233 225 210 229 249 234 231 220 204 197 189 203 207 208 248 249 236 242 250 246 143 125 232 232 211 231 249 234 219 245 254 229 238 248 257 266 271 294 308 280 284 191 105 310 289 248 222 232 199 189 211 207 219 230 238 249 253 257 255 236 227
295 296 298 299 300 306 310 304 288 285 277 268 267 247 231 209 202 334 343 278 257 163 142 174 188 190 193 208 193 177 229 237 204 214 204 199 198 196 219 205 192 236 223 224 254 234 179 168 186 217 221 228 230 248 236 209 229 253 18 359 258 250 257 256 266 249 261 294 270 182 232 278 274 228 219 224 231 232 228 243 241 228 231 241 254 255 239 237
292 294 296 298 300 305 308 301 289 277 257 258 253 215 195 175 164 97 282 272 252 123 132 170 178 190 187 178 176 176 332 94 147 194 189 192 191 189 225 224 227 232 177 190 236 218 144 183 195 188 199 228 223 266 235 197 220 266 54 36 70 81 251 213 242 255 271 293 271 199 176 255 280 229 196 211 225 235 237 243 247 241 228 228 242 250 246 244
288 290 292 295 299 302 305 301 291 276 256 247 225 197 173 159 151 88 244 255 190 116 139 162 172 189 163 154 183 205 321 40 203 175 175 189 190 183 240 234 244 250 189 209 241 274 73 153 198 188 202 228 197 37 15 210 221 142 108 81 79 88 95 149 244 271 281 272 257 210 169 222 282 243 173 195 210 220 230 236 239 243 238 226 232 244 247 243
284 287 287 289 293 296 302 303 294 278 252 227 204 179 156 151 155 245 234 241 317 120 126 152 174 168 157 156 198 215 218 215 103 134 156 190 195 199 287 250 246 262 221 235 259 263 117 97 49 213 215 213 100 69 24 18 116 133 143 116 109 192 171 200 242 264 277 265 248 203 179 202 272 242 150 179 201 203 209 221 222 230 238 229 228 237 241 241
280 282 282 283 287 290 296 300 296 279 241 216 190 164 153 149 196 239 231 269 333 178 131 168 179 151 169 182 197 195 201 212 146 152 176 173 189 204 220 187 187 238 245 244 251 239 186 168 193 204 178 125 108 101 59 57 129 163 175 196 228 231 197 212 216 166 248 263 237 183 183 198 234 219 156 185 200 196 192 210 224 226 232 229 228 236 239 240
275 276 276 277 279 281 284 290 293 273 230 206 177 166 167 193 230 236 221 65 10 189 150 173 177 171 195 208 210 175 183 204 175 178 196 175 189 201 201 201 173 191 240 224 225 224 206 204 186 145 145 172 175 158 120 118 181 202 194 195 234 246 228 232 217 191 236 253 136 156 185 207 234 244 229 225 206 196 196 217 235 233 234 237 233 232 236 237
268 268 268 269 272 276 277 281 284 258 218 190 175 177 194 238 233 222 190 167 214 172 118 136 166 176 193 207 215 169 169 206 174 184 199 183 209 215 211 220 208 238 255 204 210 211 220 226 169 158 186 189 188 195 205 191 181 192 191 185 206 231 248 251 240 237 246 245 129 132 188 234 255 250 227 229 222 206 212 223 228 229 232 238 229 220 230 233
262 262 262 264 267 270 266 264 268 252 210 187 185 190 204 237 237 183 183 202 205 104 88 95 148 171 198 213 198 166 200 217 164 178 195 183 212 224 215 220 218 241 273 215 250 218 243 272 175 170 168 170 188 211 213 133 173 195 196 196 214 228 242 252 254 256 266 287 204 153 189 238 264 211 199 217 220 211 218 221 219 225 229 232 224 217 228 229
260 258 257 257 254 255 255 251 254 248 205 188 204 210 205 233 236 190 206 206 181 147 116 105 153 175 217 223 189 194 222 220 167 176 199 197 211 216 205 206 202 200 187 213 246 189 240 262 170 138 125 160 182 211 160 110 185 193 182 207 231 236 229 248 268 269 300 318 274 199 219 244 263 271 185 198 207 203 212 215 212 223 226 226 228 228 233 230
260 256 255 251 243 245 249 241 239 235 202 184 204 223 222 238 232 213 223 194 181 154 131 163 187 192 225 211 188 208 215 208 177 182 212 214 229 227 206 192 190 189 185 190 211 189 230 259 145 118 81 161 170 231 159 185 217 161 177 206 223 272 229 244 265 274 120 278 268 235 246 257 268 263 185 169 190 198 200 201 205 221 222 220 227 232 235 233
259 252 252 251 244 242 243 233 229 219 197 185 208 221 230 247 243 254 312 81 200 153 152 212 206 192 219 219 204 191 174 181 184 189 214 204 228 222 200 198 187 187 198 199 215 227 227 265 178 168 215 151 26 1 167 277 292 143 187 210 112 42 318 244 257 264 242 260 271 264 267 267 269 267 172 167 197 203 195 199 207 216 215 214 226 234 239 238
261 251 248 252 249 244 239 229 218 204 186 183 234 235 241 246 244 249 122 99 143 170 191 229 207 188 215 232 220 171 164 188 177 181 216 204 221 193 174 196 192 189 205 208 219 257 204 253 231 160 99 113 85 278 198 230 245 185 289 306 80 220 208 205 224 244 249 256 265 270 276 272 253 255 179 176 199 201 194 207 210 209 209 210 224 233 239 240
261 249 245 252 249 245 241 226 207 192 175 173 224 236 253 252 257 265 168 190 221 196 214 234 223 215 221 232 233 164 169 191 172 176 211 208 218 178 164 183 193 197 206 200 208 242 178 230 241 46 15 117 136 226 200 177 189 255 306 275 224 250 232 211 210 224 238 247 260 274 283 277 254 245 202 182 191 194 192 203 206 208 213 210 219 232 237 238
257 244 246 251 247 244 235 214 192 182 176 194 216 230 249 256 272 268 226 229 238 216 235 247 239 236 228 229 245 205 192 204 190 197 210 196 211 197 173 176 180 199 204 195 207 223 152 220 233 72 352 215 195 202 195 188 182 186 224 217 200 198 276 289 246 234 237 247 256 263 272 273 275 149 183 165 171 185 187 196 198 201 212 211 218 231 238 240
258 243 248 245 242 234 213 191 174 183 194 223 231 242 251 258 275 267 245 244 250 244 253 259 251 251 248 241 244 226 208 219 214 217 220 204 222 227 177 181 179 151 162 189 213 213 180 208 222 202 201 224 218 196 196 201 187 185 199 202 199 187 183 236 235 224 220 239 246 244 260 267 262 101 125 136 149 178 181 188 192 191 204 210 220 231 238 242
256 243 247 239 236 218 194 175 177 196 191 222 225 241 263 260 268 271 261 251 253 265 273 272 261 255 253 250 249 232 205 221 224 223 229 218 226 227 175 181 178 147 147 186 210 201 178 171 223 229 223 225 222 178 211 218 180 221 223 209 208 195 192 216 223 212 185 221 246 246 256 264 241 111 118 128 139 181 184 183 204 210 203 207 221 230 235 240
248 249 249 239 234 214 191 171 199 192 203 236 228 242 252 245 266 278 266 246 239 242 248 254 262 253 250 253 252 241 223 229 230 228 238 235 232 235 195 180 168 153 169 199 183 160 113 135 225 240 258 277 262 126 51 47 167 240 243 215 213 213 209 222 236 251 197 208 230 232 243 259 247 115 157 240 198 210 205 197 220 229 212 214 226 229 231 238
262 259 237 219 216 206 192 179 198 202 225 235 230 242 241 240 249 248 247 235 224 216 235 246 261 263 263 273 272 259 247 245 239 235 243 245 242 261 212 183 173 178 199 208 174 165 167 198 214 232 254 264 261 231 214 194 191 219 230 213 214 219 217 229 249 289 248 236 237 240 244 254 251 147 239 257 229 205 206 205 218 226 220 225 232 230 231 235
273 261 220 202 199 199 203 207 205 208 214 217 227 232 233 240 237 235 241 239 230 232 235 237 267 305 283 279 280 266 256 256 255 250 254 251 248 10 356 203 196 203 230 298 193 172 181 204 196 216 232 219 231 240 227 169 183 210 226 216 213 212 209 218 228 217 237 241 239 241 247 255 267 277 272 265 246 221 215 203 208 221 230 238 239 232 229 232
259 237 209 199 199 208 230 238 226 221 204 212 225 223 227 237 236 235 238 238 234 232 231 236 280 335 293 255 260 261 255 259 268 277 282 272 275 25 21 284 253 265 327 347 347 165 185 235 204 222 237 224 231 245 248 118 164 190 213 214 211 211 210 213 223 226 235 241 238 238 245 255 265 271 273 272 267 263 262 253 231 229 235 240 240 233 230 233
244 223 189 187 203 222 244 247 237 229 192 201 200 198 223 231 236 232 222 224 233 227 228 245 225 230 246 236 244 258 252 257 267 272 278 279 279 285 347 36 319 315 345 351 336 356 329 251 229 238 244 240 243 250 253 252 228 204 204 210 208 207 207 211 224 230 232 240 244 241 244 252 254 257 266 271 272 272 272 276 275 269 261 249 238 236 236 237
238 250 224 212 207 209 229 234 233 228 203 198 199 210 224 224 220 218 211 221 229 208 201 241 217 214 229 227 226 242 247 254 259 252 252 260 263 265 274 3 201 237 353 10 2 16 283 254 246 250 253 250 250 253 255 258 253 234 225 227 219 208 206 215 226 229 228 237 249 248 248 252 251 251 259 266 270 274 276 279 280 281 283 271 241 239 245 247
242 259 255 246 235 210 218 223 223 223 213 206 210 219 225 225 221 218 208 210 221 202 202 229 225 219 226 224 219 227 233 237 247 243 231 232 241 248 258 256 233 185 159 176 172 159 214 255 247 251 261 260 257 258 258 260 261 255 247 244 236 224 222 227 230 223 222 235 243 247 251 255 256 255 256 261 270 277 280 282 282 280 280 275 256 253 262 266
252 269 284 281 272 267 254 235 224 227 219 212 219 216 220 229 228 225 214 204 213 203 199 221 233 227 224 220 216 222 223 223 235 240 227 219 227 230 232 239 239 193 152 179 191 179 200 231 238 247 263 258 254 257 256 257 262 262 259 258 258 251 240 238 237 221 224 238 243 246 253 260 260 257 257 263 272 277 279 280 280 277 277 276 271 268 271 275
265 282 302 306 288 271 275 256 234 241 226 211 221 221 224 231 229 232 230 218 217 211 197 214 228 229 229 226 220 226 229 226 231 235 231 226 222 222 224 214 204 193 164 181 187 175 200 229 235 240 253 249 244 249 251 255 259 260 260 257 252 250 247 244 243 233 231 241 247 249 253 255 254 258 264 269 269 269 271 274 274 274 276 279 279 274 272 275
273 281 293 307 302 236 259 263 244 250 244 223 224 220 223 231 227 231 240 227 221 223 221 219 222 225 231 226 222 230 235 235 237 237 238 240 237 233 232 207 186 182 180 193 200 185 196 219 223 224 243 248 243 246 252 256 258 252 242 238 239 245 253 257 256 248 238 234 239 241 238 241 251 259 266 267 264 260 259 262 267 272 277 280 276 270 272 276